Find Starlink 32616

NORAD ID: 61920 Int'l Des: 2024-207 Owner: SPXS Country: US Constellation: starlink operational
LEOCIRCULAR

Current View

Loading 3D Globe...

About Starlink 32616

Starlink 32616 (NORAD 61920) is a starlink constellation satellite (v2 mini) launched Nov 11, 2024 by SPXS of US. It operates in LEO, CIRCULAR orbit with a mass of 730.00 kg.

Upcoming Passes

Passes for default location (London). Set your location on the main map for personalized predictions.

Altitude History

Loading altitude history...

Two-Line Element Set

1 61920U 24207J 26263.35944518 .00008603 00000-0 32173-3 0 9997
2 61920 42.9968 262.4068 0000926 282.0364 78.0384 15.27584655104494
Epoch: Sep 20, 2026 • Age: 22 hours

Current Status

Altitude 485.8 km
Apogee / Perigee N/A
Velocity 7.63 km/s
Sub-Earth Point 39.22°N, 145.86°W
Launch Date Nov 11, 2024
Age 1.8 years
Type internet

Technical Details

Classification Payload
Mass 730.00 kg
Dry Mass 700.00 kg
Length 0.30 m
Span 29.00 m
Shape ? Box + pan
Manufacturer SPXS
Bus Type Starlink V2M
Phase Status In Orbit
Owner/State SPXS/US

Most Searched